TimeEST,TemperatureF,Dew PointF,Humidity,Sea Level PressureIn,VisibilityMPH,Wind Direction,Wind SpeedMPH,Gust SpeedMPH,PrecipitationIn,Events,Conditions,WindDirDegrees,DateUTC
12:53 AM,70.0,62.1,76,29.80,10.0,SSW,10.4,21.9,N/A,,Overcast,210,2011-11-17 05:53:00
1:04 AM,69.8,62.6,78,29.80,10.0,SW,10.4,-,N/A,,Overcast,220,2011-11-17 06:04:00
1:49 AM,59.0,55.4,88,29.82,9.0,NNW,16.1,-,0.00,Rain,Light Rain,340,2011-11-17 06:49:00
1:53 AM,59.0,55.0,87,29.82,8.0,NNW,12.7,-,0.00,Rain,Light Rain,340,2011-11-17 06:53:00
2:00 AM,57.2,55.4,94,29.82,7.0,North,9.2,-,0.01,Rain,Light Rain,360,2011-11-17 07:00:00
2:38 AM,55.4,51.8,88,29.83,10.0,North,13.8,-,0.04,,Overcast,360,2011-11-17 07:38:00
2:53 AM,55.4,51.8,88,29.84,10.0,North,11.5,-,N/A,,Overcast,350,2011-11-17 07:53:00
3:53 AM,55.0,51.1,86,29.83,10.0,North,12.7,-,N/A,,Overcast,350,2011-11-17 08:53:00
4:53 AM,54.0,50.0,86,29.83,10.0,North,12.7,20.7,N/A,,Overcast,10,2011-11-17 09:53:00
5:53 AM,54.0,50.0,86,29.84,10.0,NNE,9.2,-,N/A,,Overcast,20,2011-11-17 10:53:00
6:53 AM,53.1,48.9,86,29.86,10.0,North,16.1,19.6,0.00,,Overcast,10,2011-11-17 11:53:00
7:53 AM,51.1,48.9,92,29.85,3.0,NNE,10.4,-,0.00,,Overcast,30,2011-11-17 12:53:00
8:53 AM,51.1,48.9,92,29.86,3.0,NNE,10.4,-,0.00,Rain,Light Rain,20,2011-11-17 13:53:00
9:21 AM,51.8,48.2,88,29.87,2.0,North,12.7,-,0.01,Rain,Light Rain,10,2011-11-17 14:21:00
9:29 AM,50.0,48.2,94,29.86,1.8,North,11.5,-,0.05,Rain,Rain,360,2011-11-17 14:29:00
9:35 AM,50.0,46.4,87,29.86,3.0,North,11.5,-,0.05,Rain,Light Rain,350,2011-11-17 14:35:00
9:53 AM,50.0,46.9,89,29.87,3.0,North,18.4,24.2,0.06,Rain,Light Rain,10,2011-11-17 14:53:00
10:21 AM,48.2,46.4,93,29.93,2.5,NW,10.4,23.0,0.02,Rain,Light Rain,320,2011-11-17 15:21:00
10:43 AM,46.4,42.8,87,29.93,3.0,North,25.3,33.4,0.06,Rain,Light Rain,350,2011-11-17 15:43:00
10:50 AM,44.6,41.0,87,29.94,4.0,NNW,20.7,33.4,0.08,Rain,Rain,340,2011-11-17 15:50:00
10:53 AM,45.0,41.0,86,29.95,4.0,NNW,17.3,32.2,0.08,Rain,Light Rain,330,2011-11-17 15:53:00
11:02 AM,44.6,41.0,87,29.96,5.0,NNW,19.6,27.6,0.02,Rain,Rain,340,2011-11-17 16:02:00
11:53 AM,44.6,41.0,87,29.94,10.0,North,13.8,23.0,N/A,Rain,Light Rain,10,2011-11-17 16:53:00
12:45 PM,44.6,41.0,87,29.97,10.0,NNW,16.1,21.9,0.01,,Overcast,340,2011-11-17 17:45:00
12:53 PM,45.0,39.9,82,29.96,10.0,North,12.7,24.2,0.01,,Overcast,360,2011-11-17 17:53:00
1:22 PM,44.6,39.2,81,29.99,10.0,NNW,15.0,21.9,N/A,,Overcast,330,2011-11-17 18:22:00
1:53 PM,46.0,39.9,79,30.01,10.0,NNW,12.7,-,N/A,,Overcast,340,2011-11-17 18:53:00
2:53 PM,46.0,39.9,79,30.02,10.0,NNW,10.4,-,N/A,,Overcast,340,2011-11-17 19:53:00
3:53 PM,46.9,39.0,74,30.06,10.0,NNW,6.9,-,N/A,,Overcast,340,2011-11-17 20:53:00
4:53 PM,45.0,39.0,80,30.09,10.0,North,4.6,-,N/A,,Mostly Cloudy,10,2011-11-17 21:53:00
5:53 PM,45.0,41.0,86,30.14,10.0,Calm,Calm,-,N/A,,Overcast,0,2011-11-17 22:53:00
6:53 PM,43.0,39.0,86,30.18,10.0,NW,3.5,-,N/A,,Clear,310,2011-11-17 23:53:00
7:53 PM,44.1,30.9,60,30.22,10.0,NW,11.5,-,N/A,,Clear,310,2011-11-18 00:53:00
8:53 PM,42.1,26.1,53,30.25,10.0,NW,10.4,19.6,N/A,,Clear,310,2011-11-18 01:53:00
9:53 PM,41.0,25.0,53,30.29,10.0,WNW,9.2,-,N/A,,Clear,300,2011-11-18 02:53:00
10:53 PM,37.9,24.1,57,30.31,10.0,WNW,4.6,-,N/A,,Clear,290,2011-11-18 03:53:00
11:53 PM,37.0,26.1,65,30.32,10.0,WNW,4.6,-,N/A,,Clear,290,2011-11-18 04:53:00